sat.trackr.live / text

‹ back to catalog

STARLINK-30191

NORAD 57413 · 2023-102K

PAYLOAD ACTIVE UNKNOWN

§ Identity

Operator
Country
US
Launch date
2023-07-20
Launch site
AFWTR
Launch vehicle
Mass (kg)
RCS (m²)

Purposes: comms

External: N2YO · Heavens-Above · Gunter

§ Orbital elements

Epoch: 2026-09-20T22:00:03.000096Z

Period
93.19 min
Inclination
43.0009°
Eccentricity
0.0002485
Mean motion
15.45205408 rev/d
Perigee alt
429.1 km
Apogee alt
432.5 km
Semi-major
6,808.9 km
B*
1.0412e-3
RAAN
160.8268°
Arg perigee
271.4212°
Mean anomaly
68.4282°
Rev number
576

§ Raw data

STARLINK-301911 57413U 23102K   26263.91670139  .00050644  00000+0  10412-2 0  99912 57413  43.0009 160.8268 0002485 271.4212  68.4282 15.45205408  5769

JSON: /api/v1/satellites/57413 · /tle

For live sub-satellite position, see the globe view (requires WebGL).

§ Visibility from observer

Set your observer location to see the next 7 days of passes ≥ 10°. The values pass through the URL so the page stays shareable.

No JS? Fill the form by hand. The geolocation button needs JavaScript.